Regional Weather Roundup
Issued by NWS New Orleans/Baton Rouge, LA

Home | Current Version | Previous Version | Graphics & Text | Print | Product List | Glossary On
Versions: 1 2 3 4 5 6 7 8 9 10 11 12 13 14 15 16 17 18 19 20 21 22 23 24 25 26 27 28 29 30 31 32 33 34 35 36 37 38 39 40 41 42 43 44 45 46 47 48 49 50
444
ASUS44 KLIX 231505
RWRLIX
NEW ORLEANS REGIONAL WEATHER ROUNDUP
NATIONAL WEATHER SERVICE NEW ORLEANS LA
1000 AM CDT THU OCT 23 2014

NOTE: "FAIR" INDICATES FEW OR NO CLOUDS BELOW 12,000 FEET WITH NO
      SIGNIFICANT WEATHER AND/OR OBSTRUCTIONS TO VISIBILITY.
      SKY/WX - SKY CONDITION AND SIGNIFICANT WEATHER.
      TMP - AIR TEMPERATURE.     DP    - DEWPOINT TEMPERATURE.
      RH  - RELATIVE HUMIDITY.   PRES  - PRESSURE.
      HI  - HEAT INDEX.          WCI   - WIND CHILL INDEX.

*  THESE STATIONS ARE NOT NWS OR FAA STATIONS AND ARE NOT UNDER
   NWS QUALITY CONTROL.

LAZ038-040-048-061>063-065>067-069-231600-
SOUTHEAST LOUISIANA

CITY           SKY/WX    TMP DP  RH WIND       PRES   REMARKS
N.O. AUDUBON     N/A     68  56  64 MISG        N/A
N.O. INTL ARPT MOSUNNY   67  52  58 NE9       30.12R
N.O. LAKEFRONT SUNNY     65  51  60 E9        30.13R
N.O. DOWNTOWN*   N/A     64  48  55 E5        30.12S
SLIDELL        SUNNY     63  48  58 NE5       30.12S
BATON ROUGE    SUNNY     63  47  55 VRB5      30.15R
BOOTHVILLE     SUNNY     73  58  59 NE8       30.08S
BELLE CHASSE   MOSUNNY   67  56  67 NE9       30.10S
BOGALUSA*        N/A     61  47  60 E6        30.16S
NEW ROADS*       N/A     64  48  57 E10       30.13F
GONZALES*        N/A     62  50  66 NE3       30.13R
HAMMOND*       SUNNY     63  45  51 E5        30.15S
HOUMA*         SUNNY     66  55  68 NE10      30.11R
PORT FOURCHON* SUNNY     72  61  68 NE9       30.12R

$$

MSZ070-080>082-231600-
SOUTHERN MISSISSIPPI

CITY           SKY/WX    TMP DP  RH WIND       PRES   REMARKS
MCCOMB         MOSUNNY   60  44  55 NE6       30.15S
GULFPORT       SUNNY     63  46  54 NE9       30.12R
BILOXI         SUNNY     62  47  56 NE7       30.12S
PASCAGOULA     SUNNY     62  48  60 N7        30.13R
STENNIS ARPT*  SUNNY     63  43  48 E6        30.13R

$$

COASTAL OBSERVATIONS
LAKE AND NEARSHORE STATIONS

STATION/POSITION TIME  TEMP    WIND        PRES    WAVE
                       AIR SEA DIR/SP/G            HT/PER
                 (UTC) (F)     (DEG/KT/KT) (MB)    (FT/S)
PASCAGOULA       1500   62      30/  8/ 10 1019.4
WAVELAND YACHT   1500   60      50/  8/ 11 1019.3
GRAND ISLE       1500   71 74   50/  8/ 12 1019.1
SOUTHWEST PASS   1500   74 81              1018.4
NEW CANAL        1500   63 69   60/ 10/ 12 1020.2
SHELL BEACH      1500   66 66   50/ 12/ 16 1019.3

OFFSHORE STATIONS

STATION/POSITION TIME  TEMP    WIND        PRES    WAVE
                       AIR SEA DIR/SP/G            HT/PER
                 (UTC) (F)     (DEG/KT/KT) (MB)    (FT/S)
64 S DAUPHIN ISL 1418   72 79   70/ 12/ 16 1018.7    4/ 6

$$




USA.gov is the U.S. government's official web portal to all federal, state and local government web resources and services.